Location: Brabourne
(51.1333°N, 1.0000°E)
Time: 07:27:48
(UTC+00:00)

Cosmos 1933 - Pass Details

Date: 20 June 2021
Orbit: 547 x 562 km, 82.5° (Epoch: 31 July)

Event Time Altitude Azimuth Distance (km) Brightness Sun altitude
Rises 02:36:10 0° 343° (NNW) 2,764 7.5 -7.7°
Reaches altitude 10° 02:38:26 10° 336° (NNW) 1,864 6.4 -7.5°
Maximum altitude 02:42:16 39° 268° (W) 859 4.0 -7.1°
Drops below altitude 10° 02:46:04 10° 199° (SSW) 1,853 5.4 -6.7°
Enters shadow 02:46:48 - 196° (SSW) 2,141 5.7 -6.7°
